Time,TemperatureF,DewpointF,PressureIn,WindDirection,WindDirectionDegrees,WindSpeedMPH,WindSpeedGustMPH,Humidity,HourlyPrecipIn,Conditions,Clouds,dailyrainin,SoftwareType,DateUTC
2013-02-16 00:02:00,31.0,25.0,-100.00,NW,315,0.0,-999.0,78,-99.99,,,-99.99,,2013-02-16 06:02:00,
2013-02-16 00:11:00,31.0,25.0,-100.00,NW,315,0.0,-999.0,78,-99.99,,,-99.99,,2013-02-16 06:11:00,
2013-02-16 00:21:00,30.0,25.0,-100.00,NNW,337,0.0,-999.0,80,-99.99,,,-99.99,,2013-02-16 06:21:00,
2013-02-16 00:32:00,30.0,25.0,-100.00,East,90,0.0,-999.0,82,-99.99,,,-99.99,,2013-02-16 06:32:00,
2013-02-16 00:42:00,30.0,25.0,-100.00,WNW,292,1.0,4.0,81,-99.99,,,-99.99,,2013-02-16 06:42:00,
2013-02-16 00:51:00,31.0,26.0,-100.00,WNW,292,3.0,4.0,82,-99.99,,,-99.99,,2013-02-16 06:51:00,
2013-02-16 01:02:00,30.0,26.0,-100.00,WNW,292,2.0,3.0,83,-99.99,,,-99.99,,2013-02-16 07:02:00,
2013-02-16 01:11:00,30.0,26.0,-100.00,NW,315,0.0,-999.0,84,-99.99,,,-99.99,,2013-02-16 07:11:00,
2013-02-16 01:21:00,30.0,26.0,-100.00,WNW,292,0.0,-999.0,85,-99.99,,,-99.99,,2013-02-16 07:21:00,
2013-02-16 01:31:00,30.0,26.0,-100.00,NW,315,0.0,-999.0,84,-99.99,,,-99.99,,2013-02-16 07:31:00,
2013-02-16 01:42:00,31.0,26.0,-100.00,NW,315,0.0,-999.0,82,-99.99,,,-99.99,,2013-02-16 07:42:00,
2013-02-16 01:52:00,30.0,25.0,-100.00,NW,315,0.0,-999.0,83,-99.99,,,-99.99,,2013-02-16 07:52:00,
2013-02-16 02:01:00,30.0,25.0,-100.00,NW,315,0.0,-999.0,82,-99.99,,,-99.99,,2013-02-16 08:01:00,
2013-02-16 02:11:00,30.0,25.0,-100.00,WNW,292,2.0,3.0,80,-99.99,,,-99.99,,2013-02-16 08:11:00,
2013-02-16 02:21:00,30.0,25.0,-100.00,WNW,292,2.0,3.0,79,-99.99,,,-99.99,,2013-02-16 08:21:00,
2013-02-16 02:31:00,30.0,24.0,-100.00,NW,315,2.0,3.0,79,-99.99,,,-99.99,,2013-02-16 08:31:00,
2013-02-16 02:41:00,30.0,24.0,-100.00,WNW,292,2.0,3.0,77,-99.99,,,-99.99,,2013-02-16 08:41:00,
2013-02-16 02:52:00,30.0,24.0,-100.00,NW,315,2.0,3.0,78,-99.99,,,-99.99,,2013-02-16 08:52:00,
2013-02-16 03:01:00,29.0,23.0,-100.00,WNW,292,0.0,-999.0,78,-99.99,,,-99.99,,2013-02-16 09:01:00,
2013-02-16 03:11:00,29.0,24.0,-100.00,WNW,292,0.0,-999.0,80,-99.99,,,-99.99,,2013-02-16 09:11:00,
2013-02-16 03:21:00,29.0,24.0,-100.00,West,270,0.0,-999.0,82,-99.99,,,-99.99,,2013-02-16 09:21:00,
2013-02-16 03:31:00,30.0,24.0,-100.00,WNW,292,2.0,3.0,79,-99.99,,,-99.99,,2013-02-16 09:31:00,
2013-02-16 03:42:00,30.0,23.0,-100.00,WNW,292,2.0,4.0,76,-99.99,,,-99.99,,2013-02-16 09:42:00,
2013-02-16 03:51:00,29.0,23.0,-100.00,NW,315,1.0,3.0,76,-99.99,,,-99.99,,2013-02-16 09:51:00,
2013-02-16 04:01:00,29.0,22.0,-100.00,NW,315,4.0,7.0,75,-99.99,,,-99.99,,2013-02-16 10:01:00,
2013-02-16 04:11:00,30.0,21.0,-100.00,NW,315,6.0,11.0,70,-99.99,,,-99.99,,2013-02-16 10:11:00,
2013-02-16 04:21:00,30.0,21.0,-100.00,NW,315,5.0,8.0,71,-99.99,,,-99.99,,2013-02-16 10:21:00,
2013-02-16 04:31:00,30.0,21.0,-100.00,NNW,337,4.0,7.0,70,-99.99,,,-99.99,,2013-02-16 10:31:00,
2013-02-16 04:41:00,30.0,20.0,-100.00,NNW,337,4.0,7.0,68,-99.99,,,-99.99,,2013-02-16 10:41:00,
2013-02-16 04:51:00,30.0,20.0,-100.00,NNW,337,5.0,9.0,68,-99.99,,,-99.99,,2013-02-16 10:51:00,
2013-02-16 05:02:00,29.0,20.0,-100.00,NNW,337,5.0,8.0,67,-99.99,,,-99.99,,2013-02-16 11:02:00,
2013-02-16 05:11:00,29.0,20.0,-100.00,NNW,337,4.0,7.0,67,-99.99,,,-99.99,,2013-02-16 11:11:00,
2013-02-16 05:22:00,29.0,21.0,-100.00,NW,315,3.0,6.0,71,-99.99,,,-99.99,,2013-02-16 11:22:00,
2013-02-16 05:31:00,29.0,21.0,-100.00,NNW,337,3.0,6.0,72,-99.99,,,-99.99,,2013-02-16 11:31:00,
2013-02-16 05:42:00,29.0,21.0,-100.00,NNW,337,5.0,9.0,71,-99.99,,,-99.99,,2013-02-16 11:42:00,
2013-02-16 05:52:00,29.0,20.0,-100.00,NNW,337,5.0,8.0,70,-99.99,,,-99.99,,2013-02-16 11:52:00,
2013-02-16 06:01:00,29.0,20.0,-100.00,NNW,337,6.0,11.0,69,-99.99,,,-99.99,,2013-02-16 12:01:00,
2013-02-16 06:12:00,29.0,20.0,-100.00,NNW,337,5.0,8.0,70,-99.99,,,-99.99,,2013-02-16 12:12:00,
2013-02-16 06:22:00,29.0,20.0,-100.00,NNW,337,5.0,8.0,70,-99.99,,,-99.99,,2013-02-16 12:22:00,
2013-02-16 06:32:00,29.0,20.0,-100.00,NNW,337,6.0,9.0,70,-99.99,,,-99.99,,2013-02-16 12:32:00,
2013-02-16 06:42:00,29.0,20.0,-100.00,NNW,337,6.0,9.0,70,-99.99,,,-99.99,,2013-02-16 12:42:00,
2013-02-16 06:52:00,28.0,20.0,-100.00,East,90,6.0,9.0,71,-99.99,,,-99.99,,2013-02-16 12:52:00,
2013-02-16 07:01:00,28.0,20.0,-100.00,NNW,337,6.0,9.0,71,-99.99,,,-99.99,,2013-02-16 13:01:00,
2013-02-16 07:11:00,28.0,20.0,-100.00,NNW,337,6.0,9.0,71,-99.99,,,-99.99,,2013-02-16 13:11:00,
2013-02-16 07:21:00,28.0,20.0,-100.00,East,90,6.0,9.0,72,-99.99,,,-99.99,,2013-02-16 13:21:00,
2013-02-16 07:31:00,29.0,20.0,-100.00,East,90,5.0,9.0,71,-99.99,,,-99.99,,2013-02-16 13:31:00,
2013-02-16 07:41:00,29.0,21.0,-100.00,East,90,7.0,11.0,70,-99.99,,,-99.99,,2013-02-16 13:41:00,
2013-02-16 07:51:00,29.0,21.0,-100.00,East,90,8.0,12.0,69,-99.99,,,-99.99,,2013-02-16 13:51:00,
2013-02-16 08:01:00,30.0,21.0,-100.00,East,90,8.0,12.0,69,-99.99,,,-99.99,,2013-02-16 14:01:00,
2013-02-16 08:11:00,29.0,21.0,-100.00,East,90,8.0,12.0,69,-99.99,,,-99.99,,2013-02-16 14:11:00,
2013-02-16 08:21:00,30.0,21.0,-100.00,East,90,8.0,14.0,69,-99.99,,,-99.99,,2013-02-16 14:21:00,
2013-02-16 08:32:00,30.0,21.0,-100.00,East,90,8.0,12.0,68,-99.99,,,-99.99,,2013-02-16 14:32:00,
2013-02-16 08:41:00,31.0,21.0,-100.00,East,90,8.0,14.0,66,-99.99,,,-99.99,,2013-02-16 14:41:00,
2013-02-16 08:52:00,31.0,21.0,-100.00,NNE,22,9.0,14.0,66,-99.99,,,-99.99,,2013-02-16 14:52:00,
2013-02-16 09:01:00,31.0,20.0,-100.00,East,90,9.0,13.0,65,-99.99,,,-99.99,,2013-02-16 15:01:00,
2013-02-16 09:11:00,31.0,21.0,-100.00,East,90,9.0,16.0,65,-99.99,,,-99.99,,2013-02-16 15:11:00,
2013-02-16 09:21:00,31.0,21.0,-100.00,East,90,8.0,13.0,65,-99.99,,,-99.99,,2013-02-16 15:21:00,
2013-02-16 09:31:00,31.0,21.0,-100.00,East,90,9.0,13.0,64,-99.99,,,-99.99,,2013-02-16 15:31:00,
2013-02-16 09:41:00,32.0,21.0,-100.00,East,90,8.0,14.0,63,-99.99,,,-99.99,,2013-02-16 15:41:00,
2013-02-16 09:51:00,32.0,21.0,-100.00,East,90,7.0,12.0,64,-99.99,,,-99.99,,2013-02-16 15:51:00,
2013-02-16 10:01:00,32.0,21.0,-100.00,NNW,337,7.0,13.0,62,-99.99,,,-99.99,,2013-02-16 16:01:00,
2013-02-16 10:11:00,32.0,21.0,-100.00,East,90,8.0,13.0,63,-99.99,,,-99.99,,2013-02-16 16:11:00,
2013-02-16 10:21:00,32.0,21.0,-100.00,East,90,8.0,14.0,62,-99.99,,,-99.99,,2013-02-16 16:21:00,
2013-02-16 10:32:00,32.0,21.0,-100.00,East,90,8.0,13.0,62,-99.99,,,-99.99,,2013-02-16 16:32:00,
2013-02-16 10:41:00,32.0,20.0,-100.00,East,90,9.0,13.0,60,-99.99,,,-99.99,,2013-02-16 16:41:00,
2013-02-16 10:51:00,33.0,20.0,-100.00,East,90,8.0,17.0,58,-99.99,,,-99.99,,2013-02-16 16:51:00,
2013-02-16 11:01:00,33.0,19.0,-100.00,East,90,6.0,11.0,55,-99.99,,,-99.99,,2013-02-16 17:01:00,
2013-02-16 11:11:00,33.0,18.0,-100.00,East,90,7.0,12.0,53,-99.99,,,-99.99,,2013-02-16 17:11:00,
2013-02-16 11:21:00,34.0,18.0,-100.00,East,90,7.0,12.0,51,-99.99,,,-99.99,,2013-02-16 17:21:00,
2013-02-16 11:32:00,34.0,16.0,-100.00,NNW,337,7.0,11.0,48,-99.99,,,-99.99,,2013-02-16 17:32:00,
2013-02-16 11:41:00,34.0,16.0,-100.00,East,90,7.0,13.0,48,-99.99,,,-99.99,,2013-02-16 17:41:00,
2013-02-16 11:52:00,34.0,14.0,-100.00,NNW,337,6.0,12.0,44,-99.99,,,-99.99,,2013-02-16 17:52:00,
2013-02-16 12:02:00,34.0,15.0,-100.00,NW,315,8.0,14.0,45,-99.99,,,-99.99,,2013-02-16 18:02:00,
2013-02-16 12:11:00,35.0,17.0,-100.00,NNW,337,8.0,14.0,46,-99.99,,,-99.99,,2013-02-16 18:11:00,
2013-02-16 12:21:00,35.0,16.0,-100.00,NW,315,9.0,16.0,45,-99.99,,,-99.99,,2013-02-16 18:21:00,
2013-02-16 12:33:00,35.0,16.0,-100.00,NNW,337,8.0,13.0,45,-99.99,,,-99.99,,2013-02-16 18:33:00,
2013-02-16 12:42:00,34.0,16.0,-100.00,NW,315,8.0,14.0,47,-99.99,,,-99.99,,2013-02-16 18:42:00,
2013-02-16 12:51:00,36.0,17.0,-100.00,NNW,337,6.0,10.0,46,-99.99,,,-99.99,,2013-02-16 18:51:00,
2013-02-16 13:02:00,36.0,17.0,-100.00,NNW,337,7.0,12.0,45,-99.99,,,-99.99,,2013-02-16 19:02:00,
2013-02-16 13:11:00,36.0,16.0,-100.00,WNW,292,9.0,15.0,44,-99.99,,,-99.99,,2013-02-16 19:11:00,
2013-02-16 13:21:00,37.0,18.0,-100.00,East,90,6.0,12.0,46,-99.99,,,-99.99,,2013-02-16 19:21:00,
2013-02-16 13:31:00,36.0,16.0,-100.00,NW,315,10.0,16.0,43,-99.99,,,-99.99,,2013-02-16 19:31:00,
2013-02-16 13:42:00,36.0,17.0,-100.00,NW,315,7.0,10.0,44,-99.99,,,-99.99,,2013-02-16 19:42:00,
2013-02-16 13:52:00,37.0,16.0,-100.00,NW,315,7.0,11.0,43,-99.99,,,-99.99,,2013-02-16 19:52:00,
2013-02-16 14:01:00,37.0,16.0,-100.00,NW,315,8.0,13.0,43,-99.99,,,-99.99,,2013-02-16 20:01:00,
2013-02-16 14:11:00,37.0,16.0,-100.00,WNW,292,5.0,9.0,42,-99.99,,,-99.99,,2013-02-16 20:11:00,
2013-02-16 14:21:00,38.0,15.0,-100.00,East,90,6.0,12.0,40,-99.99,,,-99.99,,2013-02-16 20:21:00,
2013-02-16 14:32:00,38.0,15.0,-100.00,NW,315,8.0,13.0,39,-99.99,,,-99.99,,2013-02-16 20:32:00,
2013-02-16 14:42:00,38.0,14.0,-100.00,NW,315,9.0,16.0,37,-99.99,,,-99.99,,2013-02-16 20:42:00,
2013-02-16 14:52:00,38.0,14.0,-100.00,NW,315,6.0,12.0,37,-99.99,,,-99.99,,2013-02-16 20:52:00,
2013-02-16 15:02:00,38.0,13.0,-100.00,WNW,292,7.0,15.0,36,-99.99,,,-99.99,,2013-02-16 21:02:00,
2013-02-16 15:11:00,38.0,14.0,-100.00,NNW,337,6.0,11.0,35,-99.99,,,-99.99,,2013-02-16 21:11:00,
2013-02-16 15:21:00,39.0,13.0,-100.00,NW,315,6.0,12.0,35,-99.99,,,-99.99,,2013-02-16 21:21:00,
2013-02-16 15:31:00,39.0,12.0,-100.00,NW,315,7.0,15.0,33,-99.99,,,-99.99,,2013-02-16 21:31:00,
2013-02-16 15:41:00,38.0,11.0,-100.00,NW,315,6.0,11.0,32,-99.99,,,-99.99,,2013-02-16 21:41:00,
2013-02-16 15:52:00,39.0,11.0,-100.00,NW,315,9.0,16.0,31,-99.99,,,-99.99,,2013-02-16 21:52:00,
2013-02-16 16:01:00,39.0,11.0,-100.00,NW,315,7.0,13.0,31,-99.99,,,-99.99,,2013-02-16 22:01:00,
2013-02-16 16:11:00,39.0,12.0,-100.00,East,90,6.0,11.0,32,-99.99,,,-99.99,,2013-02-16 22:11:00,
2013-02-16 16:21:00,38.0,10.0,-100.00,WNW,292,4.0,8.0,30,-99.99,,,-99.99,,2013-02-16 22:21:00,
2013-02-16 16:32:00,39.0,11.0,-100.00,NW,315,7.0,12.0,32,-99.99,,,-99.99,,2013-02-16 22:32:00,
2013-02-16 16:42:00,38.0,10.0,-100.00,NNW,337,5.0,9.0,31,-99.99,,,-99.99,,2013-02-16 22:42:00,
2013-02-16 16:51:00,39.0,10.0,-100.00,NW,315,5.0,9.0,30,-99.99,,,-99.99,,2013-02-16 22:51:00,
2013-02-16 17:02:00,38.0,10.0,-100.00,NW,315,3.0,6.0,30,-99.99,,,-99.99,,2013-02-16 23:02:00,
2013-02-16 17:11:00,38.0,11.0,-100.00,WNW,292,4.0,6.0,32,-99.99,,,-99.99,,2013-02-16 23:11:00,
2013-02-16 17:21:00,38.0,13.0,-100.00,West,270,4.0,7.0,35,-99.99,,,-99.99,,2013-02-16 23:21:00,
2013-02-16 17:31:00,38.0,12.0,-100.00,WNW,292,3.0,6.0,35,-99.99,,,-99.99,,2013-02-16 23:31:00,
2013-02-16 17:42:00,37.0,11.0,-100.00,WNW,292,2.0,4.0,34,-99.99,,,-99.99,,2013-02-16 23:42:00,
2013-02-16 17:52:00,37.0,13.0,-100.00,West,270,1.0,3.0,37,-99.99,,,-99.99,,2013-02-16 23:52:00,
2013-02-16 18:02:00,36.0,16.0,-100.00,WSW,247,0.0,-999.0,44,-99.99,,,-99.99,,2013-02-17 00:02:00,
2013-02-16 18:12:00,36.0,20.0,-100.00,SW,225,0.0,-999.0,54,-99.99,,,-99.99,,2013-02-17 00:12:00,
2013-02-16 18:21:00,35.0,17.0,-100.00,SW,225,0.0,-999.0,47,-99.99,,,-99.99,,2013-02-17 00:21:00,
2013-02-16 18:31:00,35.0,22.0,-100.00,South,180,0.0,-999.0,59,-99.99,,,-99.99,,2013-02-17 00:31:00,
2013-02-16 18:41:00,34.0,24.0,-100.00,SSE,157,0.0,-999.0,67,-99.99,,,-99.99,,2013-02-17 00:41:00,
2013-02-16 18:51:00,33.0,24.0,-100.00,SSE,157,0.0,-999.0,67,-99.99,,,-99.99,,2013-02-17 00:51:00,
2013-02-16 19:01:00,33.0,26.0,-100.00,SSE,157,0.0,-999.0,76,-99.99,,,-99.99,,2013-02-17 01:01:00,
2013-02-16 19:11:00,33.0,24.0,-100.00,SSE,157,0.0,-999.0,68,-99.99,,,-99.99,,2013-02-17 01:11:00,
2013-02-16 19:21:00,33.0,26.0,-100.00,South,180,0.0,-999.0,76,-99.99,,,-99.99,,2013-02-17 01:21:00,
2013-02-16 19:31:00,32.0,25.0,-100.00,South,180,0.0,-999.0,74,-99.99,,,-99.99,,2013-02-17 01:31:00,
2013-02-16 19:41:00,33.0,23.0,-100.00,SSE,157,0.0,-999.0,66,-99.99,,,-99.99,,2013-02-17 01:41:00,
2013-02-16 19:52:00,33.0,22.0,-100.00,SSE,157,3.0,4.0,63,-99.99,,,-99.99,,2013-02-17 01:52:00,
2013-02-16 20:01:00,33.0,23.0,-100.00,SSE,157,2.0,3.0,68,-99.99,,,-99.99,,2013-02-17 02:01:00,
2013-02-16 20:11:00,33.0,22.0,-100.00,SSE,157,2.0,3.0,63,-99.99,,,-99.99,,2013-02-17 02:11:00,
2013-02-16 20:21:00,32.0,23.0,-100.00,SSE,157,3.0,3.0,68,-99.99,,,-99.99,,2013-02-17 02:21:00,
2013-02-16 20:31:00,32.0,24.0,-100.00,South,180,3.0,4.0,73,-99.99,,,-99.99,,2013-02-17 02:31:00,
2013-02-16 20:41:00,32.0,22.0,-100.00,SSW,202,5.0,7.0,65,-99.99,,,-99.99,,2013-02-17 02:41:00,
2013-02-16 20:52:00,32.0,22.0,-100.00,SSW,202,4.0,6.0,65,-99.99,,,-99.99,,2013-02-17 02:52:00,
2013-02-16 21:01:00,32.0,22.0,-100.00,SSW,202,5.0,6.0,64,-99.99,,,-99.99,,2013-02-17 03:01:00,
2013-02-16 21:11:00,32.0,22.0,-100.00,SSW,202,5.0,7.0,66,-99.99,,,-99.99,,2013-02-17 03:11:00,
2013-02-16 21:21:00,32.0,23.0,-100.00,SSW,202,4.0,6.0,68,-99.99,,,-99.99,,2013-02-17 03:21:00,
2013-02-16 21:31:00,32.0,22.0,-100.00,SSW,202,4.0,7.0,67,-99.99,,,-99.99,,2013-02-17 03:31:00,
2013-02-16 21:42:00,32.0,23.0,-100.00,SSW,202,5.0,6.0,68,-99.99,,,-99.99,,2013-02-17 03:42:00,
2013-02-16 21:51:00,32.0,23.0,-100.00,SSW,202,4.0,6.0,68,-99.99,,,-99.99,,2013-02-17 03:51:00,
2013-02-16 22:01:00,32.0,23.0,-100.00,SSW,202,4.0,5.0,70,-99.99,,,-99.99,,2013-02-17 04:01:00,
2013-02-16 22:11:00,31.0,23.0,-100.00,SSW,202,4.0,6.0,71,-99.99,,,-99.99,,2013-02-17 04:11:00,
2013-02-16 22:21:00,31.0,24.0,-100.00,SSW,202,3.0,4.0,75,-99.99,,,-99.99,,2013-02-17 04:21:00,
2013-02-16 22:31:00,31.0,24.0,-100.00,SSW,202,4.0,6.0,77,-99.99,,,-99.99,,2013-02-17 04:31:00,
2013-02-16 22:41:00,31.0,25.0,-100.00,SSW,202,4.0,6.0,78,-99.99,,,-99.99,,2013-02-17 04:41:00,
2013-02-16 22:51:00,31.0,25.0,-100.00,SSW,202,4.0,6.0,78,-99.99,,,-99.99,,2013-02-17 04:51:00,
2013-02-16 23:01:00,30.0,25.0,-100.00,SSW,202,4.0,5.0,80,-99.99,,,-99.99,,2013-02-17 05:01:00,
2013-02-16 23:12:00,30.0,25.0,-100.00,SW,225,3.0,4.0,79,-99.99,,,-99.99,,2013-02-17 05:12:00,
2013-02-16 23:22:00,30.0,25.0,-100.00,SW,225,3.0,4.0,79,-99.99,,,-99.99,,2013-02-17 05:22:00,
2013-02-16 23:32:00,30.0,25.0,-100.00,SSW,202,3.0,4.0,81,-99.99,,,-99.99,,2013-02-17 05:32:00,
2013-02-16 23:42:00,30.0,25.0,-100.00,SSW,202,3.0,4.0,81,-99.99,,,-99.99,,2013-02-17 05:42:00,
2013-02-16 23:52:00,30.0,25.0,-100.00,SSW,202,4.0,5.0,80,-99.99,,,-99.99,,2013-02-17 05:52:00,